カタログに戻る

STARLINK-5526

運用中通信VLEO
NORAD 56496·PAYLOAD·🇺🇸 United States

打ち上げ May 10, 2023 から Vandenberg Space Force Base

Loading…

次のパス (今後24時間)

TLE

最新Source: CelesTrak SupGP

元期: Sep 15, 2026, 03:03 UTC

1 56496C 23064BA  26258.12756944  .00070302  00000+0  58915-2 0  2585
2 56496  70.0020 346.7173 0003518 254.7888   9.9527 14.98294622    11

AllMySatでSTARLINK-5526をリアルタイム追跡

Download on the App Store